Вернуться в каталог

STARLINK-11090

АктивенСвязьVLEO
NORAD 59422·PAYLOAD·🇺🇸 United States

Запущен Apr 7, 2024 с Vandenberg Space Force Base

Loading…

Ближайшие Пролёты (ближайшие 24 часа)

TLE

СвежийSource: CelesTrak SupGP

Эпоха: Sep 14, 2026, 20:46 UTC

1 59422C 24065B   26257.86576389  .00055002  00000+0  45310-3 0  2577
2 59422  53.1568 241.2772 0001169  92.9412 345.8655 15.69680105    19

Отслеживайте STARLINK-11090 в реальном времени с AllMySat

Download on the App Store